Tracking 30105 objects as of 24-Jan-2025
HD Live streaming from Space Station
objects crossing your sky now

ONEWEB-0615

Track ONEWEB-0615 now!
10-day predictions
ONEWEB-0615 is classified as:


NORAD ID: 54676
Int'l Code: 2022-166AL
Perigee: 1,183.7 km
Apogee: 1,186.1 km
Inclination: 87.9 °
Period: 108.9 minutes
Semi major axis: 7555 km
RCS: Unknown
Launch date: December 8, 2022
Source: United Kingdom (UK)
Launch site: AIR FORCE EASTERN TEST RANGE (AFETR)
Your satellite tracking list
Your tracking list is empty




NASA's NSSDC Master Catalog

Two Line Element Set (TLE):
1 54676U 22166AL  25024.42055238  .00000028  00000-0  36919-4 0  9999
2 54676  87.9328 345.3658 0001564  77.5291 282.6017 13.21823639104232
Source of the keplerian elements: AFSPC